Wind_Speed
20 20 22 25 26 26 25 24 24 25 25 25 25 25 24 24 24 24 23 22 20 19 18 17 17 16 15 14 13 13 12 11 10 10 9 9 8 9 9 10 10 11 12 12 13 13 14 14 15
22 22 23 24 25 23 23 24 25 26 27 26 26 25 25 25 24 24 24 23 22 20 19 18 17 17 16 15 14 13 12 12 11 10 10 9 9 10 11 11 11 11 12 12 13 13 14 14 15
24 24 24 24 23 20 21 25 27 28 28 27 26 25 25 25 24 24 24 24 22 21 21 20 19 18 17 16 15 14 13 12 12 11 11 11 11 11 11 11 11 11 12 12 13 14 14 15 15
27 27 26 24 20 20 23 26 28 28 27 27 26 26 25 25 24 24 24 24 23 22 21 21 20 19 17 16 16 15 14 13 13 12 11 11 11 10 10 10 11 11 12 13 14 14 15 16 16
30 30 28 24 21 22 24 27 28 28 27 27 26 26 25 25 24 23 24 23 23 22 21 21 20 19 18 17 16 15 15 14 13 12 11 11 10 10 10 11 11 12 13 14 15 15 16 17 18
34 32 30 25 23 24 26 27 28 28 27 27 27 26 25 24 24 23 23 23 22 21 21 20 20 19 18 17 16 16 15 14 13 12 11 11 11 11 11 12 13 14 14 15 16 16 17 18 19
36 35 32 28 27 26 26 27 27 27 28 28 27 27 26 25 24 23 23 22 22 22 21 21 20 19 19 18 17 16 15 14 13 12 12 12 12 12 13 13 14 15 15 16 16 17 18 19 20
40 38 35 30 28 28 29 28 27 28 28 28 29 28 27 26 25 24 23 22 22 22 22 21 20 20 19 19 17 16 15 14 13 13 13 13 13 13 14 14 15 15 16 16 17 18 19 20 21
43 42 37 31 30 30 31 30 29 28 28 28 28 28 27 27 26 25 24 23 22 22 22 22 21 20 19 18 17 16 15 14 14 13 13 13 14 14 14 15 15 16 16 17 18 19 21 22 22
47 45 37 33 33 33 34 33 31 29 28 27 27 27 27 27 26 25 24 23 22 22 22 22 21 20 19 18 17 16 15 14 14 14 14 14 14 15 15 15 16 17 18 19 20 21 23 24 24
49 45 39 37 36 37 37 36 33 31 29 27 27 27 27 27 26 25 24 23 22 22 21 21 20 20 19 18 17 16 16 15 15 15 15 15 15 15 15 16 17 18 19 21 22 23 24 25 26
50 46 42 40 40 40 39 38 36 33 30 29 29 28 27 26 26 25 24 24 23 22 22 21 20 20 19 18 18 17 17 16 16 16 15 15 16 16 17 18 18 20 21 23 24 25 26 27 27
53 48 46 44 45 44 43 41 38 36 33 31 30 28 27 27 27 26 25 25 23 23 22 21 21 20 20 19 19 18 17 17 17 16 16 16 17 18 19 20 21 22 23 25 26 26 27 28 29
54 51 50 49 48 48 46 44 42 37 35 33 31 30 28 28 28 27 27 26 25 24 24 23 22 21 21 20 20 19 18 18 18 18 18 18 19 20 21 22 23 24 25 26 27 28 29 29 30
56 55 54 52 51 50 50 48 44 39 38 36 33 32 30 30 29 29 28 28 27 26 25 24 23 22 22 21 21 20 20 20 19 19 20 20 21 22 23 24 25 26 27 28 29 29 30 30 31
58 58 57 54 53 52 53 50 44 42 40 38 36 34 32 31 31 31 30 30 29 28 27 26 25 24 24 23 22 22 21 21 21 21 22 22 23 24 25 26 27 28 29 29 30 31 31 32 32
62 60 58 55 55 54 56 51 45 44 43 40 38 37 35 34 33 32 32 32 31 30 29 28 27 26 26 25 24 24 23 23 23 23 24 25 25 26 27 28 29 29 30 31 31 32 33 33 33
61 60 57 56 55 55 57 54 48 46 46 43 42 40 38 37 35 34 34 33 33 33 32 30 29 28 28 27 26 26 26 25 25 25 26 27 27 28 29 30 30 30 31 32 32 33 34 34 34
58 59 58 56 55 57 57 56 52 49 49 47 45 43 42 40 38 38 36 35 35 34 33 32 31 30 30 29 29 29 29 29 28 28 28 29 30 31 31 31 31 32 32 33 33 34 35 35 35
60 60 59 56 56 58 58 57 54 53 53 50 48 46 44 42 41 40 39 37 36 35 34 34 33 33 32 32 32 32 32 31 30 30 31 31 32 32 32 33 33 34 34 34 35 35 35 36 36
63 61 57 56 56 58 60 61 58 55 55 54 52 49 47 45 43 42 41 40 39 37 36 35 35 35 34 35 35 35 34 33 32 33 33 34 34 34 34 35 35 35 35 36 36 36 36 36 37
62 58 56 56 57 58 60 63 60 57 56 55 53 51 49 47 45 44 43 42 40 39 39 38 37 37 37 37 37 36 35 35 35 36 36 36 35 35 36 36 36 37 37 36 36 37 37 37 38
58 56 56 56 57 59 60 64 63 59 58 56 54 52 50 48 47 46 45 44 43 42 41 40 40 40 39 39 38 38 37 37 37 38 38 38 37 37 37 38 38 38 38 37 37 37 37 38 38
57 56 56 57 58 62 60 63 65 60 57 54 53 51 50 49 48 47 46 46 45 44 43 43 42 41 40 40 39 39 39 39 39 39 39 39 39 39 39 39 39 39 39 38 38 38 38 38 39
60 58 57 57 59 62 59 63 66 58 54 53 52 51 50 49 49 49 48 47 46 46 45 44 43 42 42 42 41 41 40 41 41 40 41 41 40 40 40 40 40 39 39 39 38 38 38 39 39
61 60 61 59 60 59 60 64 63 56 52 51 50 50 49 49 49 49 49 48 47 47 46 45 44 43 43 42 42 41 41 42 42 42 42 42 41 41 42 41 40 40 40 40 39 39 40 40 41
61 61 59 59 59 60 61 60 60 56 52 49 48 47 48 48 48 48 47 47 47 47 47 46 45 44 43 43 43 43 42 43 43 43 43 43 42 42 42 41 41 41 41 40 39 40 41 41 41
60 59 59 60 60 60 61 59 56 53 49 46 45 45 45 47 47 47 46 46 46 46 46 47 46 45 45 44 44 44 44 44 44 44 43 43 43 43 42 42 42 41 40 40 40 40 41 41 42
60 61 61 60 61 61 61 59 51 48 45 43 43 43 44 45 45 46 46 46 46 46 45 46 46 46 46 45 45 45 44 44 44 44 43 43 43 43 42 42 41 41 40 40 40 40 41 42 42
60 59 60 61 61 61 59 56 50 46 44 42 41 41 42 42 43 44 45 46 46 46 45 45 45 45 45 45 45 45 44 44 43 43 43 43 43 43 42 42 41 40 40 40 40 41 41 42 42
Wind_Direction
235 232 230 229 229 228 226 223 223 223 223 225 225 224 224 224 224 224 224 226 228 230 230 230 230 232 235 238 242 245 248 251 254 259 264 269 275 281 288 293 297 299 302 305 306 307 308 308 309
236 233 233 232 230 228 224 223 223 223 224 225 225 225 226 227 226 225 225 227 229 231 231 230 231 234 236 239 242 245 247 249 252 257 263 269 275 280 286 291 295 298 301 304 306 308 308 309 309
237 235 234 233 230 227 222 222 222 223 224 225 226 227 227 229 228 227 227 229 230 231 232 232 234 235 237 238 240 243 245 248 252 258 264 269 275 280 285 290 294 299 302 305 306 308 308 307 307
238 236 235 233 229 226 223 222 222 223 224 225 227 228 229 229 229 228 228 229 230 232 233 234 235 236 236 237 239 242 245 248 253 258 262 268 274 279 285 290 294 298 301 303 304 305 306 305 305
238 237 235 232 228 225 224 224 223 223 223 224 226 228 229 229 229 229 229 229 230 232 234 235 234 234 235 236 238 241 243 248 252 255 260 265 270 277 283 288 291 295 298 301 302 303 304 304 303
238 237 236 231 227 226 227 226 225 224 223 224 226 227 228 229 229 229 229 229 231 232 233 233 231 231 232 234 237 241 244 247 249 252 259 264 269 275 281 286 290 294 297 299 301 302 303 303 303
238 237 235 230 227 228 229 229 227 226 225 225 225 227 228 229 229 230 230 230 231 231 231 230 229 229 231 235 237 240 240 243 246 252 259 265 271 276 282 285 289 293 296 298 300 302 303 303 303
238 236 233 230 229 230 231 231 229 228 227 226 226 228 228 229 230 230 231 230 230 230 229 228 228 230 232 234 235 235 238 242 246 254 261 267 272 277 281 285 289 293 296 299 300 302 303 304 303
237 236 232 231 230 230 232 232 229 228 228 229 229 229 228 228 229 230 230 230 230 229 227 226 227 228 229 231 232 234 237 242 248 255 262 268 272 277 282 286 290 294 297 300 301 302 303 303 303
237 236 232 231 231 230 232 231 230 228 228 227 228 228 228 228 228 228 228 228 227 225 224 224 224 225 226 228 230 234 239 244 250 256 263 268 272 278 283 287 291 295 297 299 300 302 303 303 303
236 236 232 230 230 230 231 231 229 228 226 225 225 226 225 225 225 225 224 223 222 221 220 221 223 224 225 228 232 237 242 246 252 259 265 269 274 279 283 288 292 295 298 299 301 302 302 303 303
237 235 232 229 229 230 231 231 229 228 225 224 223 222 222 223 223 222 221 219 218 218 219 220 222 224 226 230 234 239 243 249 255 261 266 270 274 279 283 288 292 295 297 299 301 301 302 303 303
235 234 232 229 229 229 230 231 230 227 225 224 223 223 221 220 220 220 219 218 217 218 220 222 224 227 230 234 238 241 245 250 256 262 266 271 275 279 284 288 291 293 296 298 300 300 301 302 302
234 233 231 229 228 229 229 230 229 227 226 225 223 223 222 221 219 219 219 219 220 221 223 225 228 231 234 236 238 242 246 251 257 263 268 273 277 281 285 288 290 293 295 297 299 300 301 302 301
233 232 230 229 229 229 229 228 228 228 227 226 224 223 222 222 220 220 220 222 223 225 226 229 231 233 236 238 240 244 249 254 259 263 269 274 279 283 285 288 290 292 294 297 298 299 300 301 301
231 231 229 228 229 229 230 228 228 228 228 227 225 224 222 222 222 222 222 224 225 227 229 231 233 236 238 241 243 247 251 255 260 265 270 275 279 282 285 287 290 292 294 296 297 298 299 300 300
230 230 229 228 229 230 232 229 227 229 229 228 227 225 224 222 223 224 225 226 227 229 231 232 235 237 240 243 246 249 253 258 263 267 271 275 279 282 284 287 290 292 294 295 296 297 298 299 299
230 231 231 229 229 232 232 231 227 230 230 229 228 227 225 224 224 225 227 228 229 230 232 234 237 240 243 246 249 252 256 260 264 268 271 274 278 281 283 286 289 292 293 295 296 296 297 298 298
232 232 232 230 230 232 233 232 229 229 230 229 228 228 227 226 226 227 228 229 231 232 234 237 239 242 246 249 251 255 258 261 265 268 271 275 278 280 283 286 288 290 291 292 294 295 296 296 297
230 230 230 230 230 232 233 233 230 229 229 229 229 229 228 228 228 229 230 232 233 234 236 238 241 244 247 250 252 256 259 262 265 268 271 274 277 279 282 284 286 288 290 291 292 294 295 295 296
229 230 230 231 231 233 234 233 231 229 230 230 230 230 230 230 230 232 233 234 235 237 239 241 243 246 248 251 254 257 260 263 266 268 270 273 275 278 280 283 285 287 288 289 291 292 293 294 295
230 229 231 232 233 233 234 234 230 230 230 230 231 231 232 232 233 234 235 237 238 240 241 243 245 247 250 252 255 257 260 262 264 266 269 272 274 276 279 282 284 285 286 288 289 291 292 293 294
229 229 232 233 235 235 233 236 230 229 230 230 232 233 233 235 236 237 238 239 240 242 244 246 247 249 251 253 256 258 260 262 264 266 269 271 273 275 278 280 281 283 284 286 288 289 291 292 293
227 228 230 232 234 236 232 236 233 228 230 231 233 234 235 236 238 239 240 241 242 243 245 247 248 250 252 254 256 258 260 262 263 265 268 270 272 274 276 278 280 281 283 284 286 288 290 291 292
223 225 227 230 232 234 231 236 235 228 229 231 233 235 236 238 238 239 240 242 243 245 246 248 249 251 253 255 256 258 259 261 263 265 267 269 271 273 275 276 278 280 282 284 286 288 289 291 292
222 224 226 229 232 234 233 235 235 231 228 230 232 234 236 238 239 240 241 243 244 245 247 249 250 252 253 255 256 257 258 260 262 264 267 269 270 272 273 275 277 279 281 283 285 286 288 289 291
223 224 227 231 234 236 236 235 234 233 230 229 231 233 235 237 239 240 241 242 244 245 247 248 250 251 252 254 255 256 258 260 262 264 266 267 269 271 273 274 276 278 280 281 283 285 287 289 291
224 225 225 227 231 234 236 235 233 234 234 232 232 233 235 237 238 239 240 241 242 244 246 247 249 250 252 253 255 256 258 259 261 263 265 267 268 270 272 273 276 278 279 280 282 284 285 288 290
222 223 225 228 231 234 236 235 232 234 234 233 233 233 234 235 237 239 240 241 241 243 244 246 248 249 250 252 254 255 257 258 260 262 264 265 267 270 272 274 276 277 278 280 281 283 285 287 289
224 225 226 227 230 233 235 234 232 232 233 233 232 232 232 233 235 237 239 241 241 242 244 245 247 249 250 251 253 254 256 258 259 261 263 265 267 269 271 273 275 276 278 279 281 282 285 286 288
Height
5815 5816 5817 5818 5820 5822 5825 5828 5830 5832 5835 5837 5839 5841 5844 5846 5849 5853 5854 5854 5855 5857 5859 5861 5862 5864 5865 5866 5867 5868 5869 5870 5871 5871 5872 5872 5872 5873 5873 5873 5874 5874 5874 5874 5873 5873 5872 5872 5871
5811 5812 5814 5814 5816 5819 5823 5825 5827 5829 5831 5833 5835 5838 5840 5842 5844 5847 5849 5850 5852 5855 5856 5858 5860 5861 5863 5864 5865 5866 5867 5868 5869 5869 5870 5870 5871 5871 5871 5872 5872 5872 5872 5871 5871 5871 5870 5870 5869
5807 5808 5810 5811 5813 5817 5820 5821 5823 5824 5827 5829 5832 5834 5836 5839 5841 5843 5846 5848 5850 5852 5854 5855 5857 5859 5860 5861 5863 5864 5865 5866 5867 5867 5868 5868 5869 5869 5869 5870 5870 5870 5870 5869 5869 5869 5868 5867 5867
5802 5804 5805 5808 5811 5814 5815 5816 5818 5820 5823 5826 5828 5831 5833 5836 5838 5840 5842 5845 5847 5849 5851 5852 5854 5856 5857 5859 5860 5861 5863 5863 5864 5865 5866 5866 5866 5867 5867 5868 5868 5868 5868 5867 5867 5866 5866 5865 5864
5796 5798 5801 5804 5807 5809 5810 5811 5814 5816 5820 5823 5825 5827 5829 5832 5834 5836 5839 5841 5843 5845 5847 5849 5851 5853 5855 5856 5858 5859 5860 5861 5862 5863 5863 5864 5864 5865 5865 5866 5866 5866 5865 5865 5864 5864 5863 5862 5861
5790 5793 5796 5800 5803 5804 5806 5807 5810 5812 5816 5819 5821 5823 5826 5828 5830 5833 5835 5838 5840 5842 5844 5846 5848 5850 5852 5853 5855 5856 5857 5858 5859 5860 5861 5862 5862 5863 5863 5863 5863 5863 5863 5862 5862 5861 5860 5860 5858
5784 5786 5790 5795 5798 5800 5802 5803 5805 5808 5811 5814 5817 5819 5822 5825 5827 5829 5832 5834 5837 5839 5841 5843 5845 5847 5849 5850 5852 5853 5855 5856 5857 5858 5859 5859 5860 5860 5860 5861 5861 5860 5860 5859 5859 5858 5857 5856 5855
5776 5780 5784 5789 5793 5795 5796 5798 5801 5803 5806 5809 5812 5815 5818 5821 5823 5825 5828 5830 5833 5835 5837 5840 5842 5844 5846 5847 5849 5850 5852 5853 5854 5855 5856 5857 5857 5858 5858 5858 5858 5857 5857 5856 5856 5855 5854 5853 5851
5767 5772 5778 5784 5788 5790 5790 5793 5796 5799 5802 5805 5808 5811 5814 5816 5819 5822 5824 5827 5829 5831 5834 5836 5839 5841 5843 5844 5846 5848 5849 5850 5851 5852 5853 5854 5854 5855 5855 5854 5854 5854 5853 5853 5852 5851 5850 5849 5847
5757 5763 5773 5778 5780 5782 5783 5786 5790 5793 5797 5800 5803 5806 5809 5812 5815 5818 5820 5823 5825 5828 5830 5833 5835 5837 5839 5841 5843 5845 5846 5847 5848 5849 5850 5850 5851 5851 5851 5851 5851 5850 5850 5849 5848 5847 5846 5845 5843
5749 5757 5765 5769 5771 5774 5776 5779 5783 5787 5791 5796 5799 5801 5804 5807 5810 5813 5816 5819 5821 5824 5827 5829 5832 5834 5836 5838 5840 5841 5843 5844 5845 5846 5846 5847 5847 5847 5847 5847 5847 5846 5846 5845 5844 5843 5841 5840 5838
5741 5749 5755 5760 5762 5765 5769 5772 5777 5781 5787 5790 5793 5796 5799 5802 5806 5809 5812 5815 5818 5821 5823 5826 5828 5831 5833 5835 5836 5838 5839 5840 5841 5842 5843 5843 5843 5843 5843 5843 5843 5842 5842 5840 5839 5838 5837 5835 5833
5729 5738 5744 5749 5752 5756 5760 5764 5769 5775 5780 5783 5787 5791 5794 5798 5801 5804 5807 5811 5814 5817 5820 5822 5824 5827 5829 5831 5832 5834 5835 5836 5837 5838 5839 5839 5839 5839 5839 5839 5838 5838 5837 5836 5834 5833 5832 5830 5828
5719 5726 5732 5737 5742 5747 5752 5757 5761 5769 5773 5777 5781 5785 5789 5793 5796 5800 5803 5807 5810 5813 5815 5818 5820 5822 5825 5827 5828 5830 5831 5832 5833 5834 5834 5835 5835 5835 5834 5834 5833 5833 5832 5830 5829 5828 5826 5824 5822
5706 5713 5720 5727 5733 5738 5742 5748 5755 5762 5765 5770 5775 5780 5784 5788 5791 5795 5799 5802 5805 5808 5811 5813 5816 5818 5820 5822 5824 5825 5827 5828 5828 5829 5830 5830 5830 5830 5829 5829 5828 5827 5826 5825 5823 5822 5820 5818 5816
5693 5699 5708 5719 5723 5729 5733 5741 5749 5753 5757 5763 5768 5773 5777 5782 5786 5790 5793 5796 5799 5803 5806 5808 5811 5813 5815 5817 5819 5821 5822 5823 5824 5824 5824 5824 5824 5824 5824 5823 5822 5821 5820 5819 5817 5816 5814 5812 5810
5680 5689 5699 5710 5714 5718 5722 5732 5742 5744 5749 5755 5761 5766 5770 5775 5780 5784 5787 5790 5794 5797 5800 5803 5806 5808 5810 5812 5814 5816 5817 5818 5818 5819 5819 5819 5819 5818 5818 5817 5816 5815 5814 5812 5811 5809 5807 5805 5803
5673 5682 5690 5699 5705 5708 5712 5721 5732 5735 5740 5746 5752 5757 5762 5768 5773 5777 5780 5784 5787 5790 5793 5797 5800 5802 5804 5806 5808 5810 5811 5812 5812 5813 5813 5813 5812 5812 5812 5811 5810 5809 5807 5806 5804 5802 5801 5799 5797
5665 5671 5679 5688 5694 5697 5702 5709 5719 5724 5729 5736 5742 5748 5754 5760 5765 5768 5773 5776 5780 5784 5787 5790 5793 5796 5798 5800 5802 5804 5805 5806 5806 5807 5807 5807 5806 5806 5805 5804 5803 5802 5801 5799 5797 5796 5794 5792 5790
5650 5657 5666 5675 5681 5685 5690 5696 5705 5713 5719 5726 5733 5739 5745 5751 5756 5761 5765 5769 5773 5777 5780 5784 5787 5789 5791 5794 5795 5797 5798 5799 5800 5800 5800 5800 5799 5799 5798 5797 5796 5795 5794 5792 5790 5788 5786 5784 5782
5636 5647 5657 5664 5670 5672 5677 5683 5693 5702 5708 5715 5723 5730 5736 5742 5748 5753 5757 5761 5765 5770 5773 5776 5779 5781 5784 5786 5787 5789 5790 5791 5793 5793 5793 5792 5792 5792 5791 5790 5789 5788 5786 5785 5783 5781 5779 5777 5775
5626 5640 5647 5652 5655 5660 5665 5669 5682 5690 5697 5705 5714 5721 5727 5734 5739 5744 5748 5753 5757 5761 5765 5768 5771 5773 5776 5777 5779 5781 5783 5784 5785 5785 5785 5785 5784 5784 5783 5782 5781 5780 5778 5777 5775 5773 5772 5770 5768
5620 5630 5635 5639 5642 5646 5651 5655 5669 5679 5687 5697 5705 5712 5718 5724 5729 5734 5739 5743 5747 5751 5755 5759 5762 5765 5767 5769 5772 5773 5775 5776 5776 5776 5776 5776 5776 5776 5775 5774 5773 5772 5770 5769 5767 5766 5764 5762 5760
5608 5615 5620 5624 5627 5630 5642 5644 5653 5670 5681 5690 5697 5703 5709 5714 5719 5724 5729 5733 5737 5741 5745 5749 5752 5755 5758 5760 5763 5765 5766 5767 5767 5768 5768 5768 5768 5768 5767 5766 5765 5764 5762 5761 5759 5758 5756 5754 5752
5591 5600 5606 5609 5611 5619 5633 5632 5642 5664 5674 5681 5688 5693 5698 5703 5708 5713 5718 5723 5727 5731 5735 5739 5742 5746 5749 5751 5754 5756 5757 5758 5758 5759 5759 5759 5759 5759 5758 5757 5756 5755 5754 5753 5751 5750 5748 5746 5744
5580 5588 5594 5600 5605 5614 5620 5622 5637 5653 5664 5671 5677 5682 5687 5692 5697 5703 5708 5712 5717 5721 5725 5729 5732 5736 5739 5742 5744 5746 5747 5748 5749 5750 5750 5750 5750 5750 5749 5748 5748 5747 5746 5744 5743 5741 5740 5738 5735
5569 5575 5586 5592 5596 5602 5605 5616 5629 5640 5652 5661 5668 5673 5677 5682 5687 5692 5697 5702 5706 5711 5715 5718 5722 5726 5729 5731 5734 5736 5737 5738 5740 5740 5740 5741 5741 5740 5740 5739 5739 5738 5737 5736 5734 5733 5731 5729 5727
5558 5567 5573 5577 5583 5589 5596 5606 5620 5632 5643 5652 5658 5663 5667 5671 5676 5681 5686 5691 5696 5700 5704 5708 5711 5715 5718 5721 5723 5725 5727 5728 5729 5730 5731 5731 5731 5731 5731 5730 5730 5729 5728 5727 5726 5724 5722 5721 5718
5546 5553 5559 5567 5573 5580 5587 5601 5616 5625 5634 5641 5647 5651 5656 5661 5666 5671 5676 5681 5685 5689 5693 5697 5701 5704 5707 5710 5713 5715 5717 5718 5719 5720 5721 5721 5721 5721 5721 5721 5721 5720 5719 5718 5717 5716 5714 5712 5709
5536 5543 5550 5557 5563 5571 5579 5595 5607 5616 5623 5630 5636 5641 5646 5651 5655 5660 5665 5670 5674 5679 5683 5686 5690 5693 5697 5699 5702 5704 5706 5707 5709 5710 5711 5711 5712 5712 5712 5712 5712 5711 5710 5709 5708 5706 5705 5702 5700